CXI24Q GCFV-EKVG

Flight info

Callsign CXI24Q
Flight time 5h 4m
Altitude 32000
Route LTE DCT SOPOP/N0442F340 DCT BERUX/N0447F350 DCT SHA/M077F350
Aircraft B738/M-SDE2E3FGHIRWXY/LB1

Departure

Time 2026-04-29 17:33
Airport Fuerteventura Airport (GCFV)

Arrival

Time 2026-04-29 22:37
Airport Vágar Airport (EKVG)
Time Latitude Longitude Altitude Speed Heading
2026-04-29 17:21 28.45270 -13.86834 98 ft 0 kts 271°
2026-04-29 17:24 28.45270 -13.86833 98 ft 2 kts 271°
2026-04-29 17:24 28.45270 -13.86805 98 ft 4 kts 271°
2026-04-29 17:25 28.45269 -13.86775 98 ft 3 kts 271°
2026-04-29 17:25 28.45270 -13.86750 98 ft 4 kts 240°
2026-04-29 17:25 28.45288 -13.86737 97 ft 4 kts 181°
2026-04-29 17:25 28.45306 -13.86737 96 ft 0 kts 181°
2026-04-29 17:27 28.45279 -13.86738 96 ft 10 kts 181°
2026-04-29 17:27 28.45206 -13.86740 98 ft 10 kts 181°
2026-04-29 17:28 28.45134 -13.86742 98 ft 10 kts 179°
2026-04-29 17:28 28.45102 -13.86685 97 ft 10 kts 93°
2026-04-29 17:28 28.45095 -13.86607 96 ft 10 kts 110°
2026-04-29 17:28 28.45024 -13.86577 94 ft 14 kts 180°
2026-04-29 17:29 28.44907 -13.86581 93 ft 21 kts 182°
2026-04-29 17:29 28.44733 -13.86587 69 ft 29 kts 181°
2026-04-29 17:29 28.44540 -13.86593 70 ft 27 kts 181°
2026-04-29 17:29 28.44354 -13.86598 57 ft 26 kts 182°
2026-04-29 17:30 28.44179 -13.86606 52 ft 24 kts 182°
2026-04-29 17:30 28.44014 -13.86612 52 ft 23 kts 181°
2026-04-29 17:30 28.43857 -13.86617 45 ft 22 kts 181°
2026-04-29 17:30 28.43706 -13.86619 41 ft 22 kts 180°
2026-04-29 17:31 28.43559 -13.86623 36 ft 21 kts 182°
2026-04-29 17:31 28.43416 -13.86628 35 ft 20 kts 181°
2026-04-29 17:31 28.43312 -13.86610 31 ft 14 kts 130°
2026-04-29 17:31 28.43306 -13.86505 33 ft 13 kts 88°
2026-04-29 17:32 28.43358 -13.86439 33 ft 13 kts
2026-04-29 17:32 28.43472 -13.86436 32 ft 35 kts
2026-04-29 17:32 28.43982 -13.86419 34 ft 109 kts
2026-04-29 17:32 28.44952 -13.86386 74 ft 167 kts
2026-04-29 17:33 28.46258 -13.86365 439 ft 196 kts
2026-04-29 17:33 28.47574 -13.86092 1447 ft 189 kts 21°
2026-04-29 17:33 28.48733 -13.85467 2523 ft 185 kts 25°
2026-04-29 17:33 28.49991 -13.84797 2788 ft 211 kts 24°
2026-04-29 17:34 28.51382 -13.84062 3005 ft 230 kts 24°
2026-04-29 17:34 28.52867 -13.83277 3345 ft 245 kts 24°
2026-04-29 17:34 28.54491 -13.82417 3631 ft 265 kts 24°
2026-04-29 17:34 28.56177 -13.81527 4339 ft 268 kts 24°
2026-04-29 17:35 28.58941 -13.80065 5458 ft 275 kts 24°
2026-04-29 17:35 28.61289 -13.78814 6353 ft 282 kts 24°
2026-04-29 17:35 28.63064 -13.77863 6962 ft 286 kts 24°
2026-04-29 17:36 28.64883 -13.76887 7571 ft 290 kts 24°
2026-04-29 17:36 28.66726 -13.75899 8174 ft 295 kts 24°
2026-04-29 17:36 28.68605 -13.74893 8781 ft 300 kts 24°
2026-04-29 17:36 28.70511 -13.73875 9394 ft 304 kts 24°
2026-04-29 17:37 28.72445 -13.72843 9989 ft 309 kts 24°
2026-04-29 17:37 28.74399 -13.71802 10348 ft 323 kts 24°
2026-04-29 17:37 28.76503 -13.70683 10489 ft 343 kts 24°
2026-04-29 17:37 28.78732 -13.69499 10663 ft 362 kts 24°
2026-04-29 17:38 28.80972 -13.68311 11022 ft 372 kts 24°
2026-04-29 17:38 28.83244 -13.67104 11549 ft 375 kts 24°
2026-04-29 17:38 28.85613 -13.65843 12217 ft 375 kts 24°
2026-04-29 17:38 28.87961 -13.64595 12809 ft 378 kts 24°
2026-04-29 17:39 28.90382 -13.63307 13366 ft 382 kts 24°
2026-04-29 17:39 28.92804 -13.62017 13925 ft 385 kts 24°
2026-04-29 17:39 28.95225 -13.60725 14436 ft 389 kts 24°
2026-04-29 17:39 28.97672 -13.59414 14913 ft 392 kts 24°
2026-04-29 17:40 29.00155 -13.58077 15403 ft 396 kts 24°
2026-04-29 17:40 29.02661 -13.56750 15886 ft 399 kts 19°
2026-04-29 17:40 29.05319 -13.55798 16375 ft 400 kts 10°
2026-04-29 17:40 29.08070 -13.55288 16884 ft 401 kts
2026-04-29 17:41 29.10855 -13.54920 17366 ft 404 kts
2026-04-29 17:41 29.13670 -13.54577 17836 ft 408 kts
2026-04-29 17:41 29.16495 -13.54236 18369 ft 409 kts
2026-04-29 17:41 29.19337 -13.53888 18804 ft 412 kts
2026-04-29 17:42 29.22165 -13.53533 19210 ft 415 kts
2026-04-29 17:42 29.25047 -13.53165 19627 ft 418 kts
2026-04-29 17:42 29.27953 -13.52788 20056 ft 421 kts
2026-04-29 17:42 29.30886 -13.52404 20461 ft 423 kts
2026-04-29 17:43 29.33792 -13.52022 20859 ft 426 kts
2026-04-29 17:43 29.36759 -13.51630 21262 ft 429 kts
2026-04-29 17:43 29.39748 -13.51235 21653 ft 432 kts
2026-04-29 17:43 29.42751 -13.50838 22051 ft 435 kts
2026-04-29 17:44 29.45738 -13.50443 22367 ft 439 kts
2026-04-29 17:44 29.48779 -13.50041 22729 ft 442 kts
2026-04-29 17:44 29.51840 -13.49635 23110 ft 444 kts
2026-04-29 17:44 29.54922 -13.49227 23500 ft 446 kts
2026-04-29 17:45 29.58010 -13.48817 23838 ft 447 kts
2026-04-29 17:45 29.61123 -13.48404 24126 ft 450 kts
2026-04-29 17:45 29.64245 -13.47989 24409 ft 453 kts
2026-04-29 17:45 29.67350 -13.47577 24696 ft 455 kts
2026-04-29 17:46 29.70510 -13.47157 24989 ft 457 kts
2026-04-29 17:46 29.73693 -13.46734 25210 ft 462 kts
2026-04-29 17:46 29.76905 -13.46307 25464 ft 464 kts
2026-04-29 17:46 29.80088 -13.45883 25775 ft 465 kts
2026-04-29 17:47 29.83318 -13.45452 26071 ft 467 kts
2026-04-29 17:47 29.86555 -13.45020 26339 ft 469 kts
2026-04-29 17:47 29.89815 -13.44585 26597 ft 471 kts
2026-04-29 17:47 29.93082 -13.44149 26857 ft 473 kts
2026-04-29 17:48 29.96368 -13.43710 27119 ft 475 kts
2026-04-29 17:48 29.99616 -13.43276 27377 ft 477 kts
2026-04-29 17:48 30.02923 -13.42834 27627 ft 478 kts
2026-04-29 17:48 30.06239 -13.42390 27866 ft 480 kts
2026-04-29 17:49 30.09571 -13.41944 28101 ft 482 kts
2026-04-29 17:49 30.12912 -13.41496 28349 ft 484 kts
2026-04-29 17:49 30.16262 -13.41047 28575 ft 486 kts
2026-04-29 17:49 30.19630 -13.40595 28805 ft 487 kts
2026-04-29 17:50 30.23015 -13.40140 29027 ft 489 kts
2026-04-29 17:50 30.26375 -13.39689 29256 ft 491 kts
2026-04-29 17:50 30.29765 -13.39233 29501 ft 492 kts
2026-04-29 17:50 30.33164 -13.38775 29813 ft 491 kts
2026-04-29 17:51 30.36567 -13.38316 30147 ft 489 kts
2026-04-29 17:51 30.39955 -13.37858 30429 ft 488 kts
2026-04-29 17:51 30.43329 -13.37403 30695 ft 487 kts
2026-04-29 17:51 30.46655 -13.36953 30953 ft 486 kts
2026-04-29 17:52 30.50025 -13.36498 31218 ft 485 kts
2026-04-29 17:52 30.52242 -13.36199 31400 ft 485 kts
2026-04-29 17:52 30.56742 -13.35590 31747 ft 483 kts
2026-04-29 17:52 30.60040 -13.35144 31969 ft 483 kts
2026-04-29 17:53 30.63384 -13.34692 32196 ft 483 kts
2026-04-29 17:53 30.66723 -13.34239 32437 ft 482 kts
2026-04-29 17:53 30.70060 -13.33787 32682 ft 481 kts
2026-04-29 17:53 30.73384 -13.33336 32906 ft 480 kts
2026-04-29 17:54 30.76705 -13.32885 33128 ft 480 kts
2026-04-29 17:54 30.80020 -13.32434 33359 ft 479 kts
2026-04-29 17:54 30.83289 -13.31990 33588 ft 478 kts
2026-04-29 17:54 30.86607 -13.31538 33751 ft 478 kts
2026-04-29 17:55 30.89914 -13.31088 33899 ft 479 kts
2026-04-29 17:55 30.93227 -13.30637 34091 ft 478 kts
2026-04-29 17:55 30.96531 -13.30186 34281 ft 477 kts
2026-04-29 17:55 30.99831 -13.29736 34463 ft 476 kts
2026-04-29 17:56 31.03086 -13.29292 34592 ft 477 kts
2026-04-29 17:56 31.06386 -13.28841 34717 ft 477 kts
2026-04-29 17:56 31.09681 -13.28391 34867 ft 477 kts
2026-04-29 17:56 31.12984 -13.27939 35000 ft 477 kts
2026-04-29 17:57 31.16290 -13.27486 34998 ft 479 kts
2026-04-29 17:57 31.22912 -13.26578 35009 ft 477 kts
2026-04-29 17:58 31.29433 -13.25682 35001 ft 471 kts
2026-04-29 17:58 31.35935 -13.24787 35003 ft 468 kts
2026-04-29 17:59 31.42368 -13.23902 35004 ft 467 kts
2026-04-29 17:59 31.48843 -13.23011 35026 ft 469 kts
2026-04-29 18:00 31.55379 -13.22110 35023 ft 474 kts
2026-04-29 18:00 31.61930 -13.21205 35018 ft 478 kts
2026-04-29 18:01 31.68583 -13.20284 35025 ft 481 kts
2026-04-29 18:01 31.75215 -13.19363 34996 ft 476 kts
2026-04-29 18:02 31.81711 -13.18459 35001 ft 470 kts
2026-04-29 18:02 31.88222 -13.17555 35007 ft 470 kts
2026-04-29 18:03 31.94680 -13.16657 35013 ft 470 kts
2026-04-29 18:03 32.01176 -13.15751 35010 ft 470 kts
2026-04-29 18:04 32.07699 -13.14841 35007 ft 471 kts
2026-04-29 18:04 32.14189 -13.13934 35006 ft 472 kts
2026-04-29 18:05 32.20723 -13.13019 35009 ft 472 kts
2026-04-29 18:05 32.27268 -13.12101 35004 ft 473 kts
2026-04-29 18:06 32.33786 -13.11186 35003 ft 474 kts
2026-04-29 18:06 32.40341 -13.10264 35003 ft 474 kts
2026-04-29 18:07 32.46867 -13.09344 35001 ft 474 kts
2026-04-29 18:07 32.53441 -13.08417 35006 ft 474 kts
2026-04-29 18:08 32.59966 -13.07495 35000 ft 474 kts
2026-04-29 18:08 32.66527 -13.06567 35002 ft 473 kts
2026-04-29 18:09 32.73020 -13.05647 35001 ft 472 kts
2026-04-29 18:09 32.79551 -13.04721 34998 ft 471 kts
2026-04-29 18:10 32.86066 -13.03795 35000 ft 470 kts
2026-04-29 18:10 32.92537 -13.02874 35000 ft 470 kts
2026-04-29 18:11 32.99050 -13.01946 34999 ft 469 kts
2026-04-29 18:11 33.05498 -13.01026 35003 ft 469 kts
2026-04-29 18:12 33.12002 -13.00096 35003 ft 469 kts
2026-04-29 18:12 33.18461 -12.99172 34997 ft 470 kts
2026-04-29 18:13 33.24968 -12.98239 34999 ft 470 kts
2026-04-29 18:13 33.31437 -12.97311 35006 ft 470 kts
2026-04-29 18:14 33.36870 -12.96530 34997 ft 470 kts
2026-04-29 18:14 33.43381 -12.95592 34993 ft 471 kts
2026-04-29 18:15 33.49871 -12.94656 34999 ft 471 kts
2026-04-29 18:15 33.56397 -12.93714 35004 ft 471 kts
2026-04-29 18:16 33.62887 -12.92776 35001 ft 472 kts
2026-04-29 18:16 33.69413 -12.91830 34997 ft 472 kts
2026-04-29 18:17 33.75939 -12.90883 34987 ft 471 kts
2026-04-29 18:17 33.82413 -12.89943 35007 ft 471 kts
2026-04-29 18:18 33.88944 -12.88992 34995 ft 471 kts
2026-04-29 18:18 33.95455 -12.88044 34997 ft 471 kts
2026-04-29 18:19 34.01931 -12.87098 34999 ft 470 kts
2026-04-29 18:19 34.08419 -12.86150 35002 ft 470 kts
2026-04-29 18:20 34.14916 -12.85199 34990 ft 469 kts
2026-04-29 18:20 34.21371 -12.84252 34992 ft 469 kts
2026-04-29 18:21 34.27864 -12.83299 34986 ft 469 kts
2026-04-29 18:21 34.34298 -12.82352 35000 ft 468 kts
2026-04-29 18:22 34.40777 -12.81398 34990 ft 468 kts
2026-04-29 18:22 34.47252 -12.80443 34986 ft 468 kts
2026-04-29 18:23 34.53723 -12.79486 34985 ft 468 kts
2026-04-29 18:23 34.60162 -12.78533 34998 ft 468 kts
2026-04-29 18:24 34.66630 -12.77575 34982 ft 468 kts
2026-04-29 18:24 34.73092 -12.76615 34984 ft 467 kts
2026-04-29 18:25 34.79515 -12.75660 34985 ft 467 kts
2026-04-29 18:25 34.85969 -12.74698 34993 ft 466 kts
2026-04-29 18:26 34.92418 -12.73737 34984 ft 466 kts
2026-04-29 18:26 34.98822 -12.72780 34979 ft 465 kts
2026-04-29 18:27 35.05253 -12.71817 34981 ft 464 kts
2026-04-29 18:27 35.11638 -12.70860 34992 ft 464 kts
2026-04-29 18:28 35.18059 -12.69896 34979 ft 463 kts
2026-04-29 18:28 35.24466 -12.68933 34980 ft 463 kts
2026-04-29 18:29 35.30829 -12.67975 34981 ft 462 kts
2026-04-29 18:29 35.37230 -12.67009 34971 ft 462 kts
2026-04-29 18:30 35.43616 -12.66045 34973 ft 462 kts
2026-04-29 18:30 35.49977 -12.65082 34973 ft 462 kts
2026-04-29 18:31 35.56374 -12.64113 34969 ft 463 kts
2026-04-29 18:31 35.62785 -12.63140 34978 ft 463 kts
2026-04-29 18:32 35.69160 -12.62171 34971 ft 464 kts
2026-04-29 18:32 35.78773 -12.60706 34967 ft 464 kts
2026-04-29 18:33 35.85209 -12.59723 34982 ft 465 kts
2026-04-29 18:33 35.91595 -12.58747 34967 ft 465 kts
2026-04-29 18:34 35.96950 -12.57926 34967 ft 465 kts
2026-04-29 18:34 36.04419 -12.56780 34967 ft 465 kts
2026-04-29 18:35 36.10847 -12.55792 34984 ft 464 kts
2026-04-29 18:35 36.17257 -12.54806 34969 ft 464 kts
2026-04-29 18:36 36.23665 -12.53818 34962 ft 463 kts
2026-04-29 18:36 36.30029 -12.52835 34958 ft 462 kts
2026-04-29 18:37 36.36420 -12.51846 34967 ft 462 kts
2026-04-29 18:37 36.42803 -12.50857 34956 ft 461 kts
2026-04-29 18:38 36.49148 -12.49872 34953 ft 461 kts
2026-04-29 18:38 36.55512 -12.48883 34954 ft 460 kts
2026-04-29 18:39 36.61883 -12.47891 34959 ft 460 kts
2026-04-29 18:39 36.68201 -12.46906 34952 ft 460 kts
2026-04-29 18:40 36.74561 -12.45912 34954 ft 459 kts
2026-04-29 18:40 36.80876 -12.44924 34951 ft 459 kts
2026-04-29 18:41 36.93582 -12.42931 34947 ft 460 kts
2026-04-29 18:42 36.99895 -12.41938 34945 ft 460 kts
2026-04-29 18:42 37.06260 -12.40935 34952 ft 460 kts
2026-04-29 18:43 37.12579 -12.39938 34947 ft 460 kts
2026-04-29 18:43 37.18928 -12.38934 34938 ft 459 kts
2026-04-29 18:44 37.25285 -12.37927 34942 ft 459 kts
2026-04-29 18:44 37.31584 -12.36928 34960 ft 458 kts
2026-04-29 18:45 37.37925 -12.35921 34942 ft 458 kts
2026-04-29 18:45 37.44255 -12.34913 34934 ft 458 kts
2026-04-29 18:46 37.50552 -12.33909 34934 ft 457 kts
2026-04-29 18:46 37.56879 -12.32899 34948 ft 457 kts
2026-04-29 18:47 37.63152 -12.31895 34933 ft 456 kts
2026-04-29 18:47 37.69462 -12.30884 34924 ft 456 kts
2026-04-29 18:48 37.75764 -12.29873 34923 ft 455 kts
2026-04-29 18:48 37.82055 -12.28861 34923 ft 455 kts
2026-04-29 18:49 37.88313 -12.27853 34924 ft 455 kts
2026-04-29 18:49 37.94611 -12.26838 34923 ft 455 kts
2026-04-29 18:50 38.00905 -12.25821 34930 ft 456 kts
2026-04-29 18:50 38.07180 -12.24805 34928 ft 456 kts
2026-04-29 18:51 38.13482 -12.23783 34910 ft 456 kts
2026-04-29 18:51 38.19791 -12.22757 34912 ft 456 kts
2026-04-29 18:52 38.26068 -12.21735 34943 ft 456 kts
2026-04-29 18:52 38.32368 -12.20708 34925 ft 456 kts
2026-04-29 18:53 38.38673 -12.19678 34906 ft 456 kts
2026-04-29 18:53 38.44920 -12.18656 34905 ft 455 kts
2026-04-29 18:54 38.51206 -12.17625 34931 ft 454 kts
2026-04-29 18:54 38.57474 -12.16596 34916 ft 453 kts
2026-04-29 18:55 38.63728 -12.15567 34906 ft 452 kts
2026-04-29 18:55 38.69921 -12.14546 34902 ft 451 kts
2026-04-29 18:56 38.76139 -12.13520 34910 ft 450 kts 360°
2026-04-29 18:56 38.82348 -12.12494 34900 ft 449 kts 360°
2026-04-29 18:57 38.88557 -12.11466 34898 ft 448 kts 360°
2026-04-29 18:57 38.94709 -12.10445 34900 ft 448 kts 360°
2026-04-29 18:58 39.00866 -12.09422 34900 ft 448 kts 360°
2026-04-29 18:58 39.07060 -12.08391 34889 ft 447 kts 360°
2026-04-29 18:59 39.13239 -12.07360 34891 ft 447 kts 360°
2026-04-29 18:59 39.19410 -12.06329 34909 ft 447 kts
2026-04-29 19:00 39.25545 -12.05302 34890 ft 446 kts
2026-04-29 19:00 39.31730 -12.04265 34892 ft 446 kts
2026-04-29 19:01 39.37866 -12.03235 34884 ft 446 kts
2026-04-29 19:01 39.44034 -12.02198 34891 ft 447 kts
2026-04-29 19:02 39.49173 -12.01331 34889 ft 447 kts
2026-04-29 19:02 39.55319 -12.00294 34881 ft 447 kts
2026-04-29 19:03 39.62498 -11.99079 34880 ft 447 kts
2026-04-29 19:03 39.67632 -11.98210 34886 ft 448 kts
2026-04-29 19:04 39.73841 -11.97156 34883 ft 448 kts
2026-04-29 19:04 39.79986 -11.96110 34882 ft 448 kts
2026-04-29 19:05 39.86185 -11.95054 34893 ft 448 kts
2026-04-29 19:05 39.92376 -11.93998 34881 ft 448 kts
2026-04-29 19:06 39.98524 -11.92946 34880 ft 447 kts
2026-04-29 19:07 40.07786 -11.91359 34877 ft 447 kts
2026-04-29 19:07 40.13955 -11.90299 34880 ft 446 kts
2026-04-29 19:08 40.20079 -11.89245 34880 ft 446 kts
2026-04-29 19:08 40.26206 -11.88189 34879 ft 445 kts
2026-04-29 19:09 40.32354 -11.87127 34889 ft 445 kts
2026-04-29 19:09 40.38510 -11.86062 34880 ft 445 kts
2026-04-29 19:10 40.44672 -11.84994 34881 ft 445 kts
2026-04-29 19:10 40.50787 -11.83932 34879 ft 446 kts
2026-04-29 19:11 40.56958 -11.82859 34884 ft 446 kts
2026-04-29 19:11 40.63126 -11.81784 34879 ft 446 kts
2026-04-29 19:12 40.69250 -11.80714 34882 ft 447 kts
2026-04-29 19:12 40.75425 -11.79634 34897 ft 447 kts
2026-04-29 19:13 40.81570 -11.78557 34892 ft 447 kts
2026-04-29 19:13 40.87762 -11.77469 34881 ft 447 kts
2026-04-29 19:14 40.93935 -11.76383 34885 ft 447 kts
2026-04-29 19:14 41.00080 -11.75300 34883 ft 447 kts
2026-04-29 19:15 41.06247 -11.74211 34880 ft 446 kts
2026-04-29 19:15 41.12368 -11.73127 34879 ft 446 kts
2026-04-29 19:16 41.18521 -11.72037 34893 ft 445 kts
2026-04-29 19:16 41.24675 -11.70943 34881 ft 445 kts
2026-04-29 19:17 41.30775 -11.69858 34884 ft 444 kts
2026-04-29 19:17 41.36910 -11.68764 34888 ft 444 kts
2026-04-29 19:18 41.43048 -11.67668 34898 ft 444 kts
2026-04-29 19:18 41.49142 -11.66577 34890 ft 444 kts
2026-04-29 19:19 41.55266 -11.65479 34886 ft 444 kts
2026-04-29 19:19 41.61369 -11.64383 34899 ft 444 kts
2026-04-29 19:20 41.67504 -11.63278 34892 ft 444 kts
2026-04-29 19:20 41.73614 -11.62177 34890 ft 444 kts
2026-04-29 19:21 41.79733 -11.61071 34894 ft 445 kts
2026-04-29 19:21 41.85883 -11.59957 34897 ft 445 kts
2026-04-29 19:22 41.91996 -11.58849 34889 ft 445 kts
2026-04-29 19:22 41.98134 -11.57733 34890 ft 444 kts
2026-04-29 19:23 42.04284 -11.56613 34900 ft 444 kts
2026-04-29 19:23 42.10366 -11.55503 34893 ft 444 kts
2026-04-29 19:24 42.16460 -11.54389 34894 ft 443 kts
2026-04-29 19:24 42.22581 -11.53268 34895 ft 443 kts
2026-04-29 19:25 42.28686 -11.52148 34893 ft 442 kts
2026-04-29 19:25 42.34788 -11.51026 34897 ft 442 kts
2026-04-29 19:26 42.40842 -11.49910 34896 ft 441 kts
2026-04-29 19:26 42.46937 -11.48785 34905 ft 442 kts
2026-04-29 19:27 42.53044 -11.47656 34900 ft 442 kts
2026-04-29 19:27 42.59117 -11.46530 34902 ft 442 kts
2026-04-29 19:28 42.65227 -11.45396 34898 ft 442 kts
2026-04-29 19:28 42.71300 -11.44266 34900 ft 443 kts
2026-04-29 19:29 42.77420 -11.43125 34899 ft 443 kts
2026-04-29 19:29 42.83503 -11.41989 34902 ft 443 kts
2026-04-29 19:30 42.89616 -11.40844 34906 ft 443 kts
2026-04-29 19:30 42.95735 -11.39697 34905 ft 443 kts
2026-04-29 19:31 43.01816 -11.38554 34902 ft 443 kts
2026-04-29 19:31 43.07952 -11.37398 34918 ft 443 kts
2026-04-29 19:32 43.14074 -11.36243 34905 ft 444 kts
2026-04-29 19:32 43.20163 -11.35092 34903 ft 444 kts
2026-04-29 19:33 43.26293 -11.33931 34906 ft 444 kts
2026-04-29 19:33 43.32372 -11.32777 34898 ft 444 kts
2026-04-29 19:34 43.38505 -11.31610 34898 ft 444 kts
2026-04-29 19:34 43.44600 -11.30450 34899 ft 444 kts
2026-04-29 19:35 43.50733 -11.29278 34918 ft 444 kts
2026-04-29 19:35 43.56830 -11.28111 34909 ft 444 kts
2026-04-29 19:36 43.62962 -11.26934 34901 ft 445 kts
2026-04-29 19:36 43.69114 -11.25752 34916 ft 445 kts
2026-04-29 19:37 43.75224 -11.24575 34913 ft 446 kts
2026-04-29 19:37 43.81376 -11.23389 34905 ft 446 kts
2026-04-29 19:38 43.87501 -11.22204 34930 ft 446 kts
2026-04-29 19:38 43.93669 -11.21009 34915 ft 447 kts
2026-04-29 19:39 43.99849 -11.19809 34909 ft 448 kts
2026-04-29 19:39 44.05996 -11.18612 34907 ft 448 kts
2026-04-29 19:40 44.12186 -11.17406 34915 ft 448 kts
2026-04-29 19:40 44.18332 -11.16205 34910 ft 449 kts
2026-04-29 19:41 44.24529 -11.14991 34910 ft 449 kts
2026-04-29 19:41 44.30736 -11.13773 34910 ft 449 kts
2026-04-29 19:42 44.36893 -11.12562 34908 ft 449 kts
2026-04-29 19:42 44.43099 -11.11339 34907 ft 449 kts
2026-04-29 19:43 44.49298 -11.10114 34915 ft 450 kts
2026-04-29 19:43 44.55466 -11.08894 34912 ft 450 kts
2026-04-29 19:44 44.61678 -11.07662 34909 ft 450 kts
2026-04-29 19:44 44.67900 -11.06425 34924 ft 451 kts
2026-04-29 19:45 44.74082 -11.05193 34913 ft 451 kts
2026-04-29 19:45 44.80309 -11.03950 34906 ft 451 kts
2026-04-29 19:46 44.86536 -11.02704 34929 ft 452 kts
2026-04-29 19:46 44.92739 -11.01460 34918 ft 453 kts
2026-04-29 19:47 44.99007 -11.00201 34910 ft 454 kts
2026-04-29 19:47 45.05234 -10.98842 34934 ft 455 kts
2026-04-29 19:48 45.11501 -10.97340 34916 ft 456 kts
2026-04-29 19:48 45.17784 -10.95826 34913 ft 457 kts
2026-04-29 19:49 45.24043 -10.94333 34909 ft 457 kts
2026-04-29 19:49 45.30337 -10.92839 34919 ft 458 kts
2026-04-29 19:50 45.36626 -10.91346 34912 ft 458 kts
2026-04-29 19:50 45.42883 -10.89856 34899 ft 458 kts
2026-04-29 19:51 45.49193 -10.88351 34919 ft 459 kts
2026-04-29 19:51 45.55460 -10.86852 34915 ft 460 kts
2026-04-29 19:52 45.61779 -10.85337 34910 ft 461 kts
2026-04-29 19:52 45.67060 -10.84068 34925 ft 461 kts
2026-04-29 19:53 45.74435 -10.82292 34923 ft 463 kts
2026-04-29 19:53 45.79770 -10.81004 34917 ft 463 kts
2026-04-29 19:54 45.89277 -10.78703 34917 ft 464 kts
2026-04-29 19:54 45.95620 -10.77163 34909 ft 464 kts
2026-04-29 19:55 46.01998 -10.75611 34912 ft 463 kts
2026-04-29 19:55 46.08364 -10.74059 34924 ft 463 kts
2026-04-29 19:56 46.14693 -10.72512 34908 ft 464 kts
2026-04-29 19:56 46.21076 -10.70948 34915 ft 464 kts
2026-04-29 19:57 46.27454 -10.69382 34910 ft 465 kts
2026-04-29 19:57 46.33818 -10.67815 34910 ft 465 kts
2026-04-29 19:58 46.40214 -10.66237 34913 ft 466 kts
2026-04-29 19:58 46.46615 -10.64654 34910 ft 466 kts
2026-04-29 19:59 46.52983 -10.63075 34917 ft 466 kts
2026-04-29 19:59 46.59396 -10.61481 34912 ft 467 kts
2026-04-29 20:00 46.65808 -10.59884 34910 ft 466 kts
2026-04-29 20:00 46.72165 -10.58296 34904 ft 467 kts
2026-04-29 20:01 46.78571 -10.56693 34915 ft 467 kts
2026-04-29 20:01 46.84994 -10.55081 34912 ft 468 kts
2026-04-29 20:02 46.91417 -10.53466 34923 ft 469 kts
2026-04-29 20:02 46.96771 -10.52116 34913 ft 470 kts
2026-04-29 20:03 47.04263 -10.50223 34910 ft 470 kts
2026-04-29 20:03 47.10719 -10.48587 34911 ft 470 kts
2026-04-29 20:04 47.17142 -10.46956 34914 ft 470 kts 10°
2026-04-29 20:04 47.23596 -10.45312 34908 ft 469 kts 10°
2026-04-29 20:05 47.30041 -10.43667 34911 ft 469 kts 10°
2026-04-29 20:05 47.36439 -10.42030 34899 ft 468 kts 11°
2026-04-29 20:06 47.42858 -10.40384 34911 ft 468 kts 11°
2026-04-29 20:06 47.49283 -10.38731 34915 ft 468 kts 11°
2026-04-29 20:07 47.55677 -10.37083 34916 ft 469 kts 11°
2026-04-29 20:07 47.62122 -10.35418 34915 ft 469 kts 11°
2026-04-29 20:08 47.67449 -10.34037 34916 ft 470 kts 11°
2026-04-29 20:08 47.75006 -10.32075 34916 ft 470 kts 11°
2026-04-29 20:09 47.81426 -10.30403 34915 ft 471 kts 11°
2026-04-29 20:09 47.87891 -10.28715 34911 ft 471 kts 11°
2026-04-29 20:10 47.94357 -10.27023 34920 ft 471 kts 11°
2026-04-29 20:10 48.00773 -10.25340 34920 ft 470 kts 12°
2026-04-29 20:11 48.07223 -10.23644 34902 ft 469 kts 12°
2026-04-29 20:11 48.13629 -10.21954 34921 ft 469 kts 12°
2026-04-29 20:12 48.20070 -10.20251 34925 ft 470 kts 12°
2026-04-29 20:12 48.26489 -10.18550 34927 ft 470 kts 12°
2026-04-29 20:13 48.32953 -10.16832 34923 ft 471 kts 12°
2026-04-29 20:13 48.39378 -10.15120 34933 ft 471 kts 12°
2026-04-29 20:14 48.45852 -10.13391 34928 ft 472 kts 12°
2026-04-29 20:14 48.52325 -10.11658 34932 ft 472 kts 12°
2026-04-29 20:15 48.58797 -10.09920 34935 ft 472 kts 12°
2026-04-29 20:15 48.65238 -10.08186 34931 ft 472 kts 13°
2026-04-29 20:16 48.71725 -10.06436 34940 ft 472 kts 13°
2026-04-29 20:16 48.78163 -10.04694 34940 ft 472 kts 13°
2026-04-29 20:17 48.84663 -10.02930 34941 ft 474 kts 13°
2026-04-29 20:17 48.91077 -10.01185 34948 ft 475 kts 13°
2026-04-29 20:18 48.97622 -9.99400 34949 ft 477 kts 13°
2026-04-29 20:18 49.04136 -9.97618 34953 ft 479 kts 13°
2026-04-29 20:19 49.10717 -9.95815 34942 ft 480 kts 14°
2026-04-29 20:19 49.17272 -9.94013 34953 ft 480 kts 14°
2026-04-29 20:20 49.23819 -9.92208 34956 ft 480 kts 14°
2026-04-29 20:20 49.30412 -9.90386 34956 ft 480 kts 14°
2026-04-29 20:21 49.36995 -9.88562 34963 ft 479 kts 14°
2026-04-29 20:21 49.43561 -9.86737 34966 ft 478 kts 14°
2026-04-29 20:22 49.50075 -9.84924 34968 ft 477 kts 15°
2026-04-29 20:22 49.56624 -9.83092 34969 ft 477 kts 15°
2026-04-29 20:23 49.63138 -9.81266 34982 ft 478 kts 15°
2026-04-29 20:23 49.69699 -9.79422 34988 ft 479 kts 15°
2026-04-29 20:24 49.76286 -9.77566 35001 ft 481 kts 15°
2026-04-29 20:24 49.82834 -9.75716 34988 ft 482 kts 15°
2026-04-29 20:25 49.89459 -9.73839 35002 ft 482 kts 15°
2026-04-29 20:25 49.96032 -9.71972 35011 ft 483 kts 15°
2026-04-29 20:26 50.02664 -9.70083 35016 ft 484 kts 15°
2026-04-29 20:26 50.09254 -9.68201 35020 ft 483 kts 15°
2026-04-29 20:27 50.14799 -9.66613 35024 ft 483 kts 15°
2026-04-29 20:27 50.22481 -9.64407 35031 ft 481 kts 15°
2026-04-29 20:28 50.29076 -9.62508 35026 ft 480 kts 15°
2026-04-29 20:28 50.35595 -9.60625 35039 ft 478 kts 15°
2026-04-29 20:29 50.42148 -9.58726 35047 ft 477 kts 15°
2026-04-29 20:29 50.48616 -9.56847 35041 ft 475 kts 15°
2026-04-29 20:30 50.55147 -9.54944 35053 ft 474 kts 15°
2026-04-29 20:30 50.61589 -9.53062 35062 ft 473 kts 15°
2026-04-29 20:31 50.68067 -9.51163 35075 ft 472 kts 15°
2026-04-29 20:31 50.74526 -9.49265 35074 ft 472 kts 15°
2026-04-29 20:32 50.80951 -9.47372 35084 ft 472 kts 15°
2026-04-29 20:32 50.86332 -9.45782 35083 ft 472 kts 15°
2026-04-29 20:33 50.93900 -9.43540 35075 ft 473 kts 15°
2026-04-29 20:33 51.00342 -9.41625 35082 ft 475 kts 15°
2026-04-29 20:34 51.06872 -9.39679 35098 ft 477 kts 15°
2026-04-29 20:34 51.13377 -9.37735 35096 ft 479 kts 15°
2026-04-29 20:35 51.19951 -9.35765 35086 ft 480 kts 15°
2026-04-29 20:35 51.26528 -9.33789 35100 ft 480 kts 15°
2026-04-29 20:36 51.31734 -9.32221 35101 ft 480 kts 15°
2026-04-29 20:36 51.37813 -9.30385 35111 ft 480 kts 15°
2026-04-29 20:37 51.44377 -9.28397 35101 ft 479 kts 15°
2026-04-29 20:37 51.50895 -9.26417 35109 ft 477 kts 15°
2026-04-29 20:38 51.57437 -9.24424 35123 ft 476 kts 15°
2026-04-29 20:38 51.63911 -9.22445 35133 ft 476 kts 15°
2026-04-29 20:39 51.70416 -9.20451 35133 ft 474 kts 15°
2026-04-29 20:39 51.75824 -9.18788 35135 ft 474 kts 15°
2026-04-29 20:40 51.83370 -9.16462 35149 ft 474 kts 15°
2026-04-29 20:40 51.88766 -9.14793 35158 ft 474 kts 15°
2026-04-29 20:41 51.95268 -9.12778 35152 ft 475 kts 15°
2026-04-29 20:41 52.01752 -9.10762 35154 ft 476 kts 15°
2026-04-29 20:42 52.08274 -9.08728 35163 ft 477 kts 15°
2026-04-29 20:42 52.14799 -9.06688 35171 ft 478 kts 15°
2026-04-29 20:43 52.21344 -9.04634 35169 ft 478 kts 15°
2026-04-29 20:43 52.27893 -9.02574 35179 ft 479 kts 15°
2026-04-29 20:44 52.34410 -9.00517 35180 ft 480 kts 15°
2026-04-29 20:44 52.40993 -8.98434 35187 ft 480 kts 15°
2026-04-29 20:45 52.47517 -8.96363 35194 ft 479 kts 15°
2026-04-29 20:45 52.54073 -8.94275 35205 ft 479 kts 15°
2026-04-29 20:46 52.60627 -8.92182 35211 ft 479 kts 15°
2026-04-29 20:46 52.67138 -8.90095 35211 ft 479 kts 15°
2026-04-29 20:47 52.73695 -8.88076 35200 ft 479 kts 12°
2026-04-29 20:47 52.80307 -8.86841 35209 ft 480 kts
2026-04-29 20:48 52.86986 -8.85868 35212 ft 480 kts
2026-04-29 20:48 52.93607 -8.84848 35206 ft 480 kts
2026-04-29 20:49 53.00232 -8.83750 35219 ft 478 kts
2026-04-29 20:49 53.06870 -8.82615 35224 ft 477 kts
2026-04-29 20:50 53.13482 -8.81477 35228 ft 477 kts
2026-04-29 20:50 53.20052 -8.80346 35232 ft 476 kts
2026-04-29 20:51 53.26648 -8.79208 35246 ft 476 kts
2026-04-29 20:51 53.33200 -8.78076 35240 ft 476 kts
2026-04-29 20:52 53.39806 -8.76931 35219 ft 476 kts
2026-04-29 20:52 53.46358 -8.75792 35241 ft 475 kts
2026-04-29 20:53 53.52936 -8.74644 35246 ft 475 kts
2026-04-29 20:53 53.59525 -8.73491 35250 ft 475 kts
2026-04-29 20:54 53.69413 -8.71754 35252 ft 475 kts
2026-04-29 20:55 53.75962 -8.70600 35263 ft 474 kts
2026-04-29 20:55 53.82531 -8.69438 35260 ft 473 kts
2026-04-29 20:56 53.89040 -8.68283 35267 ft 473 kts
2026-04-29 20:56 53.95589 -8.67117 35263 ft 471 kts
2026-04-29 20:57 54.02112 -8.65953 35271 ft 470 kts 10°
2026-04-29 20:57 54.08588 -8.64793 35279 ft 469 kts 10°
2026-04-29 20:58 54.15087 -8.63625 35271 ft 468 kts 10°
2026-04-29 20:58 54.21525 -8.62465 35252 ft 467 kts 11°
2026-04-29 20:59 54.27984 -8.61296 35260 ft 466 kts 11°
2026-04-29 20:59 54.34441 -8.60125 35265 ft 465 kts 11°
2026-04-29 21:00 54.40875 -8.58953 35262 ft 465 kts 11°
2026-04-29 21:00 54.47302 -8.57778 35261 ft 464 kts 11°
2026-04-29 21:01 54.53688 -8.56610 35283 ft 464 kts 11°
2026-04-29 21:01 54.60113 -8.55429 35301 ft 464 kts 11°
2026-04-29 21:02 54.66523 -8.54247 35311 ft 465 kts 11°
2026-04-29 21:02 54.72971 -8.53054 35296 ft 465 kts 11°
2026-04-29 21:03 54.79406 -8.51862 35308 ft 465 kts 11°
2026-04-29 21:03 54.85800 -8.50673 35312 ft 464 kts 11°
2026-04-29 21:04 54.92234 -8.49472 35317 ft 464 kts 11°
2026-04-29 21:04 54.98660 -8.48269 35304 ft 463 kts 11°
2026-04-29 21:05 55.05022 -8.47075 35309 ft 460 kts 11°
2026-04-29 21:05 55.11381 -8.45877 35315 ft 458 kts 11°
2026-04-29 21:06 55.17701 -8.44681 35435 ft 459 kts 11°
2026-04-29 21:06 55.20866 -8.44080 35674 ft 457 kts 11°
2026-04-29 21:06 55.24026 -8.43481 35941 ft 454 kts 11°
2026-04-29 21:06 55.27161 -8.42887 36291 ft 450 kts 11°
2026-04-29 21:07 55.30280 -8.42295 36535 ft 449 kts 11°
2026-04-29 21:07 55.33358 -8.41707 36704 ft 449 kts 11°
2026-04-29 21:07 55.36477 -8.41109 36845 ft 450 kts 11°
2026-04-29 21:07 55.39590 -8.40512 37016 ft 450 kts 11°
2026-04-29 21:08 55.42671 -8.39921 37218 ft 448 kts 11°
2026-04-29 21:08 55.45784 -8.39323 37402 ft 448 kts 11°
2026-04-29 21:08 55.48890 -8.38726 37566 ft 448 kts 11°
2026-04-29 21:08 55.51961 -8.38134 37675 ft 449 kts 11°
2026-04-29 21:09 55.55069 -8.37533 37719 ft 450 kts 11°
2026-04-29 21:09 55.61319 -8.36324 38003 ft 451 kts 11°
2026-04-29 21:09 55.64431 -8.35722 38212 ft 449 kts 11°
2026-04-29 21:10 55.67534 -8.35121 38338 ft 448 kts 11°
2026-04-29 21:10 55.73771 -8.33906 38344 ft 451 kts 11°
2026-04-29 21:11 55.79979 -8.32695 38344 ft 450 kts 11°
2026-04-29 21:11 55.86216 -8.31474 38347 ft 450 kts 11°
2026-04-29 21:12 55.92451 -8.30250 38344 ft 449 kts 11°
2026-04-29 21:12 55.98623 -8.29034 38345 ft 448 kts 11°
2026-04-29 21:13 56.04825 -8.27807 38337 ft 448 kts 10°
2026-04-29 21:13 56.11019 -8.26578 38350 ft 447 kts 10°
2026-04-29 21:14 56.17166 -8.25355 38350 ft 447 kts 11°
2026-04-29 21:14 56.23370 -8.24116 38358 ft 448 kts 11°
2026-04-29 21:15 56.29541 -8.22879 38355 ft 448 kts 11°
2026-04-29 21:15 56.35757 -8.21629 38354 ft 449 kts 10°
2026-04-29 21:16 56.41957 -8.20380 38359 ft 450 kts 10°
2026-04-29 21:16 56.48189 -8.19119 38361 ft 451 kts 10°
2026-04-29 21:17 56.54446 -8.17849 38362 ft 452 kts 10°
2026-04-29 21:17 56.60666 -8.16582 38356 ft 452 kts
2026-04-29 21:18 56.66942 -8.15301 38357 ft 453 kts
2026-04-29 21:18 56.73216 -8.14015 38368 ft 453 kts
2026-04-29 21:19 56.79462 -8.12731 38361 ft 454 kts
2026-04-29 21:19 56.85747 -8.11433 38355 ft 454 kts
2026-04-29 21:20 56.92000 -8.10139 38366 ft 453 kts
2026-04-29 21:20 56.98283 -8.08834 38370 ft 453 kts
2026-04-29 21:21 57.04516 -8.07535 38362 ft 453 kts
2026-04-29 21:21 57.10798 -8.06221 38362 ft 452 kts
2026-04-29 21:22 57.17031 -8.04912 38377 ft 452 kts
2026-04-29 21:22 57.23280 -8.03596 38368 ft 451 kts
2026-04-29 21:23 57.29481 -8.02286 38368 ft 451 kts
2026-04-29 21:23 57.35720 -8.00963 38383 ft 450 kts
2026-04-29 21:24 57.41937 -7.99640 38365 ft 450 kts
2026-04-29 21:24 57.48166 -7.98310 38375 ft 450 kts
2026-04-29 21:25 57.54352 -7.96985 38377 ft 450 kts
2026-04-29 21:25 57.60600 -7.95642 38378 ft 450 kts
2026-04-29 21:26 57.66791 -7.94306 38379 ft 451 kts
2026-04-29 21:26 57.73040 -7.92954 38373 ft 451 kts
2026-04-29 21:27 57.78239 -7.91825 38376 ft 452 kts
2026-04-29 21:27 57.85529 -7.90236 38370 ft 453 kts
2026-04-29 21:28 57.91814 -7.88861 38376 ft 453 kts
2026-04-29 21:28 57.98049 -7.87493 38378 ft 453 kts
2026-04-29 21:29 58.04337 -7.86108 38377 ft 454 kts
2026-04-29 21:29 58.10585 -7.84727 38378 ft 454 kts
2026-04-29 21:30 58.16861 -7.83334 38380 ft 453 kts
2026-04-29 21:30 58.22111 -7.82166 38387 ft 453 kts
2026-04-29 21:31 58.28350 -7.80773 38378 ft 453 kts
2026-04-29 21:31 58.34623 -7.79367 38384 ft 453 kts
2026-04-29 21:32 58.40856 -7.77966 38373 ft 453 kts
2026-04-29 21:32 58.47122 -7.76551 38379 ft 453 kts
2026-04-29 21:33 58.53366 -7.75137 38390 ft 455 kts
2026-04-29 21:33 58.59700 -7.73697 38396 ft 459 kts
2026-04-29 21:34 58.66057 -7.72247 38384 ft 462 kts
2026-04-29 21:34 58.72431 -7.70787 38380 ft 463 kts
2026-04-29 21:35 58.78864 -7.69309 38385 ft 464 kts
2026-04-29 21:35 58.85281 -7.67828 38380 ft 464 kts
2026-04-29 21:36 58.91655 -7.66352 38375 ft 463 kts
2026-04-29 21:36 58.98050 -7.64866 38383 ft 462 kts
2026-04-29 21:37 59.04421 -7.63380 38374 ft 459 kts
2026-04-29 21:37 59.10731 -7.61902 38389 ft 457 kts
2026-04-29 21:38 59.17052 -7.60416 38386 ft 456 kts
2026-04-29 21:38 59.23318 -7.58938 38381 ft 454 kts
2026-04-29 21:39 59.29597 -7.57451 38379 ft 453 kts
2026-04-29 21:39 59.35820 -7.55973 38376 ft 452 kts
2026-04-29 21:40 59.42064 -7.54487 38381 ft 452 kts
2026-04-29 21:40 59.48322 -7.52988 38388 ft 453 kts
2026-04-29 21:40 59.51465 -7.52233 38134 ft 457 kts
2026-04-29 21:41 59.54613 -7.51475 37870 ft 452 kts
2026-04-29 21:41 59.57732 -7.50721 37395 ft 449 kts
2026-04-29 21:41 59.60790 -7.49981 37028 ft 444 kts
2026-04-29 21:41 59.63858 -7.49238 36653 ft 440 kts
2026-04-29 21:42 59.66884 -7.48504 36308 ft 435 kts
2026-04-29 21:42 59.69855 -7.47782 35910 ft 433 kts
2026-04-29 21:42 59.72838 -7.47057 35553 ft 429 kts
2026-04-29 21:42 59.75792 -7.46337 35196 ft 426 kts
2026-04-29 21:43 59.78726 -7.45621 34826 ft 423 kts
2026-04-29 21:43 59.81653 -7.44906 34461 ft 421 kts
2026-04-29 21:43 59.84555 -7.44195 34037 ft 419 kts
2026-04-29 21:43 59.87443 -7.43487 33636 ft 416 kts
2026-04-29 21:44 59.90272 -7.42792 33262 ft 413 kts
2026-04-29 21:44 59.93120 -7.42090 32888 ft 410 kts
2026-04-29 21:44 59.95949 -7.41393 32527 ft 408 kts
2026-04-29 21:44 59.98769 -7.40696 32136 ft 406 kts
2026-04-29 21:45 60.01574 -7.40002 31800 ft 404 kts
2026-04-29 21:45 60.04362 -7.39311 31385 ft 403 kts
2026-04-29 21:45 60.07117 -7.38627 31044 ft 401 kts
2026-04-29 21:45 60.09891 -7.37937 30699 ft 399 kts
2026-04-29 21:46 60.12647 -7.37250 30332 ft 398 kts
2026-04-29 21:46 60.15393 -7.36565 29916 ft 396 kts
2026-04-29 21:46 60.18088 -7.35891 29542 ft 393 kts
2026-04-29 21:46 60.20796 -7.35213 29181 ft 390 kts
2026-04-29 21:47 60.23483 -7.34538 28817 ft 387 kts
2026-04-29 21:47 60.26157 -7.33866 28470 ft 385 kts
2026-04-29 21:47 60.28814 -7.33198 28084 ft 383 kts
2026-04-29 21:47 60.31462 -7.32530 27732 ft 381 kts
2026-04-29 21:48 60.34089 -7.31867 27359 ft 380 kts
2026-04-29 21:48 60.36671 -7.31215 27017 ft 378 kts
2026-04-29 21:48 60.39280 -7.30554 26652 ft 376 kts
2026-04-29 21:48 60.41879 -7.29895 26298 ft 375 kts
2026-04-29 21:49 60.44468 -7.29237 25945 ft 374 kts
2026-04-29 21:49 60.47054 -7.28579 25590 ft 373 kts
2026-04-29 21:49 60.49593 -7.27932 25240 ft 372 kts
2026-04-29 21:49 60.52165 -7.27276 24889 ft 372 kts
2026-04-29 21:50 60.54737 -7.26618 24538 ft 371 kts
2026-04-29 21:50 60.57304 -7.25960 24182 ft 371 kts
2026-04-29 21:50 60.59877 -7.25300 23802 ft 371 kts
2026-04-29 21:50 60.62413 -7.24649 23402 ft 371 kts
2026-04-29 21:51 60.64976 -7.23989 23050 ft 369 kts
2026-04-29 21:51 60.67529 -7.23330 22682 ft 367 kts
2026-04-29 21:51 60.72552 -7.22031 21987 ft 365 kts
2026-04-29 21:52 60.75074 -7.21378 21633 ft 363 kts
2026-04-29 21:52 60.77587 -7.20726 21290 ft 362 kts
2026-04-29 21:52 60.80092 -7.20076 20938 ft 362 kts
2026-04-29 21:52 60.82585 -7.19427 20588 ft 361 kts
2026-04-29 21:53 60.85047 -7.18785 20241 ft 361 kts
2026-04-29 21:53 60.87546 -7.18133 19904 ft 361 kts
2026-04-29 21:53 60.90041 -7.17481 19551 ft 361 kts
2026-04-29 21:53 60.92539 -7.16827 19192 ft 361 kts
2026-04-29 21:54 60.95004 -7.16181 18852 ft 361 kts
2026-04-29 21:54 60.97503 -7.15525 18475 ft 362 kts
2026-04-29 21:54 61.00004 -7.14867 18098 ft 361 kts
2026-04-29 21:54 61.02496 -7.14210 17733 ft 360 kts
2026-04-29 21:55 61.04986 -7.13552 17383 ft 359 kts
2026-04-29 21:55 61.07459 -7.12897 17044 ft 358 kts
2026-04-29 21:55 61.09924 -7.12244 16696 ft 357 kts
2026-04-29 21:55 61.12355 -7.11600 16334 ft 356 kts
2026-04-29 21:56 61.14813 -7.10947 16000 ft 355 kts
2026-04-29 21:56 61.17273 -7.10294 15648 ft 355 kts
2026-04-29 21:56 61.19727 -7.09640 15291 ft 355 kts
2026-04-29 21:56 61.22185 -7.08984 14945 ft 355 kts
2026-04-29 21:57 61.24635 -7.08329 14600 ft 354 kts
2026-04-29 21:57 61.27053 -7.07681 14258 ft 354 kts
2026-04-29 21:57 61.29494 -7.07027 13888 ft 353 kts
2026-04-29 21:57 61.31932 -7.06371 13536 ft 352 kts
2026-04-29 21:58 61.34358 -7.05718 13192 ft 350 kts
2026-04-29 21:58 61.36771 -7.05068 12843 ft 348 kts
2026-04-29 21:58 61.39166 -7.04421 12511 ft 346 kts
2026-04-29 21:58 61.41525 -7.03783 12172 ft 345 kts
2026-04-29 21:59 61.43898 -7.03141 11840 ft 343 kts
2026-04-29 21:59 61.46268 -7.02498 11518 ft 341 kts
2026-04-29 21:59 61.48620 -7.01860 11185 ft 339 kts
2026-04-29 21:59 61.50936 -7.01230 10850 ft 338 kts
2026-04-29 22:00 61.53276 -7.00594 10525 ft 337 kts
2026-04-29 22:00 61.55581 -6.99963 10351 ft 330 kts
2026-04-29 22:00 61.57831 -6.99346 10269 ft 320 kts
2026-04-29 22:00 61.60026 -6.98743 9869 ft 321 kts
2026-04-29 22:01 61.62233 -6.98133 9462 ft 323 kts
2026-04-29 22:01 61.64478 -6.97522 9081 ft 324 kts
2026-04-29 22:01 61.66718 -6.96913 8722 ft 324 kts
2026-04-29 22:01 61.68946 -6.96302 8433 ft 321 kts
2026-04-29 22:02 61.71165 -6.95691 8122 ft 320 kts
2026-04-29 22:02 61.73370 -6.95082 7801 ft 319 kts
2026-04-29 22:02 61.75539 -6.94483 7496 ft 318 kts
2026-04-29 22:02 61.77733 -6.93876 7161 ft 317 kts
2026-04-29 22:03 61.79921 -6.93270 6856 ft 316 kts
2026-04-29 22:03 61.82106 -6.92663 6537 ft 314 kts
2026-04-29 22:03 61.84284 -6.92059 6007 ft 318 kts
2026-04-29 22:03 61.86434 -6.91460 5645 ft 312 kts
2026-04-29 22:04 61.88565 -6.90865 5368 ft 305 kts
2026-04-29 22:04 61.90635 -6.90284 5095 ft 295 kts
2026-04-29 22:04 61.92633 -6.89723 4942 ft 282 kts
2026-04-29 22:04 61.94537 -6.89207 4805 ft 270 kts 359°
2026-04-29 22:05 61.96291 -6.89844 4409 ft 247 kts 321°
2026-04-29 22:05 61.97415 -6.92132 4354 ft 209 kts 300°
2026-04-29 22:05 61.98789 -6.97019 3858 ft 181 kts 290°
2026-04-29 22:06 61.99371 -6.99353 3579 ft 178 kts 292°
2026-04-29 22:06 61.99942 -7.01629 3360 ft 172 kts 287°
2026-04-29 22:06 62.00470 -7.03917 3040 ft 168 kts 290°
2026-04-29 22:06 62.01009 -7.06044 2781 ft 156 kts 291°
2026-04-29 22:07 62.01505 -7.08038 2506 ft 148 kts 290°
2026-04-29 22:07 62.01977 -7.09962 2279 ft 147 kts 290°
2026-04-29 22:07 62.02455 -7.11907 2047 ft 149 kts 290°
2026-04-29 22:07 62.02931 -7.13837 1831 ft 145 kts 289°
2026-04-29 22:08 62.03392 -7.15696 1608 ft 141 kts 291°
2026-04-29 22:08 62.03836 -7.17568 1354 ft 143 kts 287°
2026-04-29 22:08 62.04322 -7.19414 1256 ft 144 kts 289°
2026-04-29 22:08 62.04768 -7.21364 982 ft 147 kts 292°
2026-04-29 22:09 62.05268 -7.23366 644 ft 159 kts 293°
2026-04-29 22:09 62.05812 -7.25524 369 ft 178 kts 290°
2026-04-29 22:09 62.06393 -7.27845 1373 ft 181 kts 291°
2026-04-29 22:09 62.07044 -7.30314 2308 ft 199 kts 288°
2026-04-29 22:10 62.07555 -7.33159 2913 ft 216 kts 281°
2026-04-29 22:10 62.07993 -7.36226 3875 ft 209 kts 280°
2026-04-29 22:10 62.08258 -7.39556 4033 ft 244 kts 270°
2026-04-29 22:10 62.08526 -7.43297 3998 ft 257 kts 278°
2026-04-29 22:11 62.08961 -7.46830 3985 ft 240 kts 281°
2026-04-29 22:11 62.09428 -7.50135 3965 ft 225 kts 281°
2026-04-29 22:11 62.09887 -7.53300 3972 ft 223 kts 280°
2026-04-29 22:11 62.09885 -7.56463 3983 ft 208 kts 245°
2026-04-29 22:12 62.08877 -7.58578 3972 ft 213 kts 200°
2026-04-29 22:12 62.07406 -7.58522 3986 ft 221 kts 162°
2026-04-29 22:12 62.06250 -7.56290 3999 ft 237 kts 123°
2026-04-29 22:12 62.05812 -7.52863 4012 ft 247 kts 105°
2026-04-29 22:13 62.05305 -7.49418 4007 ft 243 kts 119°
2026-04-29 22:13 62.04661 -7.46072 3998 ft 245 kts 118°
2026-04-29 22:13 62.04032 -7.42673 3994 ft 246 kts 117°
2026-04-29 22:13 62.03410 -7.39290 3996 ft 245 kts 117°
2026-04-29 22:14 62.02786 -7.35893 3971 ft 245 kts 117°
2026-04-29 22:14 62.02167 -7.32513 3991 ft 245 kts 117°
2026-04-29 22:14 62.01549 -7.29140 3991 ft 242 kts 117°
2026-04-29 22:14 62.00942 -7.25851 3994 ft 242 kts 117°
2026-04-29 22:15 62.00322 -7.22507 4005 ft 243 kts 117°
2026-04-29 22:15 61.99702 -7.19134 3980 ft 245 kts 117°
2026-04-29 22:15 61.99084 -7.15751 3995 ft 245 kts 117°
2026-04-29 22:15 61.98464 -7.12355 3999 ft 245 kts 117°
2026-04-29 22:16 61.97848 -7.08969 4007 ft 246 kts 117°
2026-04-29 22:16 61.97237 -7.05614 4009 ft 246 kts 117°
2026-04-29 22:16 61.96612 -7.02209 4011 ft 246 kts 117°
2026-04-29 22:16 61.95984 -6.98823 4006 ft 247 kts 117°
2026-04-29 22:17 61.95567 -6.96588 3987 ft 242 kts 117°
2026-04-29 22:17 61.94677 -6.92400 3973 ft 217 kts 135°
2026-04-29 22:17 61.93701 -6.90232 3998 ft 199 kts 142°
2026-04-29 22:17 61.92755 -6.88148 3996 ft 194 kts 142°
2026-04-29 22:18 61.91813 -6.86061 4008 ft 196 kts 142°
2026-04-29 22:18 61.90989 -6.83712 3979 ft 208 kts 114°
2026-04-29 22:18 61.91044 -6.80624 4008 ft 220 kts 67°
2026-04-29 22:18 61.91651 -6.78892 4006 ft 223 kts 36°
2026-04-29 22:19 61.93058 -6.77765 4036 ft 214 kts
2026-04-29 22:19 61.94437 -6.78289 3980 ft 189 kts 315°
2026-04-29 22:19 61.95110 -6.80390 4018 ft 167 kts 279°
2026-04-29 22:19 61.95477 -6.82743 4011 ft 168 kts 283°
2026-04-29 22:20 61.95934 -6.85047 4007 ft 170 kts 286°
2026-04-29 22:20 61.96457 -6.87374 4015 ft 177 kts 288°
2026-04-29 22:20 61.97018 -6.89731 4009 ft 179 kts 289°
2026-04-29 22:20 61.97582 -6.92054 4010 ft 181 kts 289°
2026-04-29 22:21 61.98166 -6.94447 4013 ft 184 kts 289°
2026-04-29 22:21 61.98761 -6.96875 3839 ft 181 kts 290°
2026-04-29 22:21 61.99353 -6.99279 3577 ft 183 kts 292°
2026-04-29 22:21 61.99922 -7.01644 3328 ft 177 kts 288°
2026-04-29 22:22 62.00490 -7.03969 3022 ft 176 kts 291°
2026-04-29 22:22 62.01050 -7.06198 2758 ft 164 kts 291°
2026-04-29 22:22 62.01557 -7.08248 2492 ft 149 kts 290°
2026-04-29 22:22 62.02028 -7.10170 2250 ft 148 kts 290°
2026-04-29 22:23 62.02504 -7.12044 2129 ft 137 kts 291°
2026-04-29 22:23 62.02961 -7.13794 1849 ft 134 kts 289°
2026-04-29 22:23 62.03370 -7.15543 1594 ft 133 kts 290°
2026-04-29 22:23 62.03813 -7.17408 1364 ft 145 kts 289°
2026-04-29 22:24 62.04253 -7.19307 1223 ft 146 kts 291°
2026-04-29 22:24 62.04745 -7.21231 886 ft 146 kts 294°
2026-04-29 22:24 62.05211 -7.23091 646 ft 140 kts 290°
2026-04-29 22:24 62.05665 -7.24897 381 ft 137 kts 289°
2026-04-29 22:25 62.06082 -7.26635 265 ft 127 kts 296°
2026-04-29 22:25 62.06587 -7.28458 757 ft 146 kts 294°
2026-04-29 22:25 62.07178 -7.30308 1687 ft 157 kts 294°
2026-04-29 22:25 62.07731 -7.32416 2620 ft 170 kts 289°
2026-04-29 22:26 62.08342 -7.34943 2953 ft 206 kts 286°
2026-04-29 22:26 62.08803 -7.37849 3119 ft 209 kts 281°
2026-04-29 22:26 62.09253 -7.40705 3557 ft 206 kts 282°
2026-04-29 22:26 62.09728 -7.43828 2746 ft 238 kts 283°
2026-04-29 22:27 62.10279 -7.47043 2787 ft 236 kts 286°
2026-04-29 22:27 62.10830 -7.49956 4462 ft 175 kts 279°
2026-04-29 22:27 62.10883 -7.52333 5190 ft 159 kts 243°
2026-04-29 22:27 62.10026 -7.53978 5446 ft 189 kts 197°
2026-04-29 22:28 62.08647 -7.53519 5598 ft 220 kts 153°
2026-04-29 22:28 62.07666 -7.50860 5580 ft 244 kts 121°
2026-04-29 22:28 62.07255 -7.47011 4940 ft 286 kts 94°
2026-04-29 22:28 62.07507 -7.42745 4818 ft 293 kts 85°
2026-04-29 22:29 62.07546 -7.38455 4590 ft 290 kts 107°
2026-04-29 22:29 62.06887 -7.34469 4463 ft 280 kts 118°
2026-04-29 22:29 62.06134 -7.30778 4319 ft 261 kts 120°
2026-04-29 22:29 62.05437 -7.27399 4226 ft 244 kts 120°
2026-04-29 22:30 62.04757 -7.24176 4237 ft 235 kts 120°
2026-04-29 22:30 62.04049 -7.21030 4225 ft 237 kts 125°
2026-04-29 22:30 62.03245 -7.18008 4202 ft 230 kts 126°
2026-04-29 22:30 62.02420 -7.15145 4219 ft 226 kts 137°
2026-04-29 22:31 62.01282 -7.12933 4167 ft 216 kts 147°
2026-04-29 22:31 62.00153 -7.10895 4050 ft 209 kts 146°
2026-04-29 22:31 61.99073 -7.08915 4025 ft 205 kts 147°
2026-04-29 22:31 61.97985 -7.06914 4036 ft 207 kts 147°
2026-04-29 22:32 61.96891 -7.04904 4038 ft 208 kts 146°
2026-04-29 22:32 61.95841 -7.02797 4020 ft 211 kts 132°
2026-04-29 22:32 61.95487 -6.99773 4021 ft 219 kts 84°
2026-04-29 22:32 61.96208 -6.96959 4034 ft 223 kts 41°
2026-04-29 22:33 61.97441 -6.94915 4027 ft 225 kts 26°
2026-04-29 22:33 61.98875 -6.94328 3997 ft 206 kts 342°
2026-04-29 22:33 61.99994 -6.95784 3755 ft 180 kts 293°
2026-04-29 22:33 62.00215 -6.98160 3526 ft 157 kts 259°
2026-04-29 22:34 62.00246 -7.00461 3284 ft 154 kts 269°
2026-04-29 22:34 62.00438 -7.02639 3056 ft 147 kts 280°
2026-04-29 22:34 62.00786 -7.04616 2908 ft 140 kts 283°
2026-04-29 22:34 62.01162 -7.06567 2651 ft 144 kts 287°
2026-04-29 22:35 62.01603 -7.08485 2422 ft 142 kts 289°
2026-04-29 22:35 62.02045 -7.10290 2206 ft 135 kts 289°
2026-04-29 22:35 62.02477 -7.12011 2139 ft 133 kts 290°
2026-04-29 22:35 62.02913 -7.13675 1961 ft 125 kts 290°
2026-04-29 22:36 62.03304 -7.15294 1693 ft 122 kts 287°
2026-04-29 22:36 62.03732 -7.17015 1447 ft 140 kts 287°
2026-04-29 22:36 62.04141 -7.18833 1302 ft 131 kts 289°
2026-04-29 22:36 62.04567 -7.20602 1065 ft 138 kts 290°
2026-04-29 22:37 62.05049 -7.22449 759 ft 146 kts 289°
2026-04-29 22:37 62.05514 -7.24333 484 ft 143 kts 294°
2026-04-29 22:37 62.05964 -7.26119 259 ft 130 kts 294°
2026-04-29 22:37 62.06020 -7.26338 251 ft 0 kts 294°
2026-04-29 22:38 62.06046 -7.26461 258 ft 16 kts 294°
2026-04-29 22:38 62.06093 -7.26671 266 ft 16 kts 298°
2026-04-29 22:38 62.06144 -7.26870 272 ft 15 kts 299°
2026-04-29 22:39 62.06195 -7.27067 276 ft 16 kts 298°
2026-04-29 22:39 62.06235 -7.27231 282 ft 11 kts 297°
2026-04-29 22:39 62.06271 -7.27381 283 ft 11 kts 297°
2026-04-29 22:39 62.06306 -7.27526 292 ft 11 kts 298°
2026-04-29 22:40 62.06342 -7.27666 297 ft 11 kts 299°
2026-04-29 22:40 62.06383 -7.27823 295 ft 14 kts 298°
2026-04-29 22:40 62.06438 -7.28041 292 ft 16 kts 298°
2026-04-29 22:40 62.06512 -7.28140 286 ft 14 kts 15°
2026-04-29 22:41 62.06605 -7.28092 288 ft 13 kts
2026-04-29 22:41 62.06645 -7.28029 288 ft 7 kts 78°
2026-04-29 22:41 62.06643 -7.27910 288 ft 8 kts 80°
2026-04-29 22:41 62.06658 -7.27881 290 ft 5 kts 27°
2026-04-29 22:42 62.06668 -7.27869 288 ft 0 kts 28°